Location: Ailingen
(47.6833°N, 9.5000°E)
Time: 13:46:08
(UTC+00:00)

Cosmos 1140 Rocket - Pass Details

Date: 18 November 2025
Orbit: 741 x 761 km, 74.1° (Epoch: 06 December)

Event Time Altitude Azimuth Distance (km) Brightness Sun altitude
Rises 16:51:57 0° 215° (SW) 3,198 7.6 -11.7°
Reaches altitude 10° 16:54:23 10° 221° (SW) 2,274 6.9 -12.1°
Maximum altitude 16:59:24 52° 297° (WNW) 935 4.3 -12.9°
Drops below altitude 10° 17:04:26 10° 14° (NNE) 2,275 5.7 -13.8°
Enters shadow 17:06:30 - 19° (NNE) 3,060 6.3 -14.1°
